Weather History for Dare County Gunnery Range, NC

Change the Weather History Date:

Tuesday, June 10, 2014

  Actual Average (KMQI) Record (KMQI)
Temperature  
Mean Temperature 78 °F -  
Max Temperature 85 °F 78 °F 95 °F (2008)
Min Temperature 71 °F 66 °F 53 °F (2001)
Cooling Degree Days 12    
Growing Degree Days 28 (Base 50)    
Moisture  
Dew Point 72 °F    
Average Humidity 88    
Maximum Humidity 94    
Minimum Humidity 76    
Precipitation  
Precipitation 0.60 in - - ()
Sea Level Pressure  
Sea Level Pressure 29.95 in    
Wind  
Wind Speed 9 mph (SSW)    
Max Wind Speed 17 mph    
Max Gust Speed 24 mph    
Visibility 11 miles    
Events Rain , Thunderstorm    
Averages and records for this station are not official NWS values.
T = Trace of Precipitation, MM = Missing Value Source: NWS Daily Summary

Daily Weather History Graph

Daily Weather History Graph

Search for Another Location

Airport:

Trip Planner

Search our weather history database for the weather conditions in past years. The results will help you decide how hot, cold, wet, or windy it might be!

Date:

Astronomy

Jun. 10, 2014 Rise Set
Actual Time 5:47 AM EDT 8:19 PM EDT
Civil Twilight 5:17 AM EDT 8:48 PM EDT
Nautical Twilight 4:40 AM EDT 9:26 PM EDT
Astronomical Twilight 3:59 AM EDT 10:07 PM EDT
Moon 5:46 PM EDT (6/10) 3:45 AM EDT (6/10)
Length of Visible Light 15h 31m
Length of Day
14h 31m
Waxing Gibbous, 92% of the Moon is Illuminated
Jun 10
Waxing Gibbous
Jun 13
Full
Jun 19
Last Quarter
Jun 27
New
Jul 5
First Quarter

Hourly Weather History & Observations

Time (EDT) Temp. Heat Index Dew Point Humidity Pressure Visibility Wind Dir Wind Speed Gust Speed Precip Events Conditions
12:56 AM 75.2 °F - 69.6 °F 83% 29.96 in 12.0 mi South 10.4 mph - N/A   Mostly Cloudy
1:01 AM 75.2 °F - 69.8 °F 83% 29.96 in 12.0 mi South 11.5 mph 18.4 mph N/A   Scattered Clouds
1:36 AM 75.2 °F - 69.8 °F 83% 29.96 in 12.0 mi South 13.8 mph - N/A   Mostly Cloudy
1:56 AM 75.6 °F - 70.5 °F 84% 29.96 in 12.0 mi South 12.7 mph 18.4 mph N/A   Mostly Cloudy
2:37 AM 75.2 °F - 71.6 °F 89% 29.95 in 12.0 mi South 9.2 mph - N/A   Mostly Cloudy
2:56 AM 75.9 °F - 71.6 °F 86% 29.95 in 12.0 mi South 6.9 mph - N/A   Mostly Cloudy
3:54 AM 75.2 °F - 73.4 °F 94% 29.94 in 12.0 mi South 9.2 mph - N/A   Mostly Cloudy
3:57 AM 75.4 °F - 72.9 °F 92% 29.94 in 12.0 mi South 9.2 mph - N/A   Mostly Cloudy
4:35 AM 75.2 °F - 73.4 °F 94% 29.94 in 12.0 mi South 10.4 mph - N/A Thunderstorm Thunderstorm
4:45 AM 75.2 °F - 73.4 °F 94% 29.95 in 4.0 mi West 17.3 mph 24.2 mph N/A Rain , Thunderstorm Heavy Thunderstorms and Rain
4:51 AM 73.4 °F - 69.8 °F 88% 29.95 in 1.0 mi WNW 16.1 mph 24.2 mph N/A Rain , Thunderstorm Heavy Thunderstorms and Rain
4:56 AM 72.5 °F - 69.4 °F 90% 29.95 in 0.8 mi WNW 9.2 mph 24.2 mph 0.45 in Rain , Thunderstorm Heavy Thunderstorms and Rain
5:18 AM 71.6 °F - 69.8 °F 94% 29.95 in 10.0 mi SW 6.9 mph - N/A Rain , Thunderstorm Light Thunderstorms and Rain
5:19 AM 71.6 °F - 69.8 °F 94% 29.95 in 9.0 mi SW 5.8 mph - N/A Thunderstorm Thunderstorm
5:21 AM 71.6 °F - 69.8 °F 94% 29.95 in 9.0 mi SW 5.8 mph - N/A Rain , Thunderstorm Light Thunderstorms and Rain
5:35 AM 71.6 °F - 69.8 °F 94% 29.95 in 12.0 mi South 3.5 mph - N/A Rain , Thunderstorm Light Rain Showers
5:56 AM 71.1 °F - 69.1 °F 93% 29.95 in 12.0 mi ENE 2.3 mph - 0.02 in Rain , Thunderstorm Light Rain Showers
5:57 AM 71.6 °F - 69.8 °F 94% 29.95 in 11.0 mi East 3.5 mph - N/A Thunderstorm Mostly Cloudy
6:56 AM 72.0 °F - 70.2 °F 94% 29.94 in 12.0 mi SSW 4.6 mph - N/A Thunderstorm Mostly Cloudy
7:30 AM 73.4 °F - 71.6 °F 94% 29.97 in 12.0 mi West 6.9 mph - N/A Rain Light Rain
7:53 AM 73.4 °F - 71.6 °F 94% 29.97 in 3.0 mi SW 4.6 mph - N/A Rain Rain
7:56 AM 73.0 °F - 70.7 °F 92% 29.97 in 2.8 mi Variable 5.8 mph - 0.11 in Rain Heavy Rain
8:07 AM 73.4 °F - 71.6 °F 94% 29.95 in 8.0 mi South 2.3 mph - N/A Rain , Thunderstorm Rain Showers
8:14 AM 73.4 °F - 71.6 °F 94% 29.96 in 10.0 mi South 2.3 mph - N/A Thunderstorm Mostly Cloudy
8:20 AM 73.4 °F - 71.6 °F 94% 29.96 in 9.0 mi Variable 2.3 mph - N/A Rain Light Rain Showers
8:47 AM 73.4 °F - 71.6 °F 94% 29.96 in 12.0 mi South 5.8 mph - N/A Rain , Thunderstorm Light Thunderstorms and Rain
8:54 AM 73.4 °F - 71.6 °F 94% 29.97 in 12.0 mi SW 8.1 mph - N/A Thunderstorm Thunderstorm
8:57 AM 73.0 °F - 71.1 °F 93% 29.97 in 12.0 mi SW 8.1 mph - 0.02 in Thunderstorm Thunderstorm
9:02 AM 73.4 °F - 69.8 °F 88% 29.97 in 12.0 mi SW 8.1 mph - N/A   Mostly Cloudy
9:56 AM 72.9 °F - 69.8 °F 90% 29.96 in 12.0 mi SW 6.9 mph - N/A   Partly Cloudy
10:56 AM 74.7 °F - 70.9 °F 88% 29.97 in 12.0 mi SW 13.8 mph - N/A   Clear
11:56 AM 76.3 °F - 70.9 °F 83% 29.97 in 12.0 mi SSW 11.5 mph - N/A   Clear
12:56 PM 79.0 °F - 72.7 °F 81% 29.96 in 12.0 mi SSW 11.5 mph - N/A   Partly Cloudy
1:56 PM 82.2 °F 88.5 °F 74.5 °F 77% 29.95 in 12.0 mi SSW 11.5 mph - N/A   Scattered Clouds
2:07 PM 82.4 °F 89.5 °F 75.2 °F 79% 29.95 in 12.0 mi SSW 11.5 mph - N/A   Mostly Cloudy
2:12 PM 82.4 °F 89.5 °F 75.2 °F 79% 29.95 in 12.0 mi South 10.4 mph - N/A   Scattered Clouds
2:18 PM 80.6 °F 86.2 °F 75.2 °F 84% 29.95 in 12.0 mi South 11.5 mph 20.7 mph N/A   Mostly Cloudy
2:54 PM 82.4 °F 89.5 °F 75.2 °F 79% 29.95 in 12.0 mi SSW 11.5 mph 18.4 mph N/A   Scattered Clouds
2:57 PM 82.4 °F 89.5 °F 75.4 °F 79% 29.94 in 12.0 mi SSW 10.4 mph 18.4 mph N/A   Scattered Clouds
3:25 PM 84.2 °F 94.1 °F 77.0 °F 79% 29.94 in 12.0 mi South 9.2 mph 16.1 mph N/A   Mostly Cloudy
3:43 PM 84.2 °F 94.1 °F 77.0 °F 79% 29.94 in 12.0 mi SSW 10.4 mph 18.4 mph N/A   Scattered Clouds
3:56 PM 83.8 °F 92.5 °F 75.9 °F 77% 29.93 in 12.0 mi SSW 11.5 mph 16.1 mph N/A   Scattered Clouds
4:56 PM 84.6 °F 93.9 °F 76.1 °F 76% 29.92 in 12.0 mi South 10.4 mph - N/A   Partly Cloudy
5:56 PM 83.8 °F 92.8 °F 76.5 °F 78% 29.92 in 12.0 mi South 10.4 mph - N/A   Clear
6:56 PM 81.9 °F 88.9 °F 75.9 °F 82% 29.92 in 12.0 mi SSW 10.4 mph - N/A   Clear
7:56 PM 80.1 °F 85.1 °F 75.0 °F 85% 29.92 in 12.0 mi SSW 9.2 mph - N/A   Clear
8:56 PM 77.5 °F - 74.5 °F 90% 29.93 in 11.0 mi SSW 8.1 mph - N/A   Clear
9:56 PM 76.3 °F - 73.4 °F 91% 29.96 in 12.0 mi SW 6.9 mph - N/A   Clear
11:56 PM 76.6 °F - 72.5 °F 87% 29.97 in 12.0 mi WSW 9.2 mph - N/A   Clear